Tracking 18980 objects as of 21-Feb-2018
HD Live streaming from Space Station
objects crossing your sky now

NOAA 16 DEB

Track NOAA 16 DEB now!
10-day predictions


NORAD ID: 41273
Int'l Code: 2000-055FZ
Perigee: 759.1 km
Apogee: 853.7 km
Inclination: 98.9 °
Period: 100.9 minutes
Semi major axis: 7177 km
RCS: Unknown
Launch date: September 21, 2000
Source: United States (US)
Launch site: AIR FORCE WESTERN TEST RANGE (AFWTR)

Note: This is SATELLITE DEBRIS
aabbcc
Your satellite tracking list
Your tracking list is empty




NASA's NSSDC Master Catalog

Two Line Element Set (TLE):
1 41273U 00055FZ  18050.48763635 +.00000930 +00000-0 +38654-3 0  9994
2 41273 098.8761 145.3128 0065882 271.1136 088.2496 14.27755444112927
Source of the keplerian elements: AFSPC